LA4GY-1 Weather Reports


Display with metric or nautical units.
time (UTC)temp
F
wind
direction
speed
MPH
gust
MPH
rain 1hr
in
rain 24hr
in
rain mn
in
humidity
%
barometer
mb
20260901162753 56 101 0.0 0.0 0.00 0.23 0.18 80 1006.8
20260901161753 57 149 0.0 0.0 0.00 0.23 0.18 79 1006.7
20260901160753 58 166 0.0 0.0 0.00 0.23 0.18 76 1006.7
20260901155753 58 117 0.0 0.0 0.00 0.23 0.18 75 1006.5
20260901154753 58 242 0.0 0.0 0.00 0.23 0.18 74 1006.6
20260901153753 59 252 0.0 0.0 0.00 0.23 0.18 74 1006.7
20260901152753 59 304 0.0 0.0 0.00 0.23 0.18 74 1006.7
20260901151723 59 205 0.0 0.0 0.00 0.23 0.18 74 1006.6
20260901150723 59 202 0.0 0.0 0.00 0.23 0.18 72 1006.7
20260901145723 59 230 0.0 0.0 0.00 0.23 0.18 71 1006.7
20260901144653 60 220 0.0 0.0 0.00 0.23 0.18 70 1006.6
20260901143623 60 183 0.0 0.0 0.00 0.23 0.18 71 1006.6
20260901142623 60 216 0.0 0.0 0.00 0.23 0.18 70 1006.7
20260901141623 61 237 0.0 0.0 0.00 0.23 0.18 70 1006.6
20260901140553 61 186 0.0 0.0 0.00 0.23 0.18 72 1006.5
20260901135553 61 221 0.0 0.0 0.00 0.23 0.18 71 1006.5
20260901134523 61 170 0.0 0.0 0.00 0.23 0.18 74 1006.5
20260901133453 60 178 0.0 0.0 0.00 0.23 0.18 75 1006.5
20260901132453 60 214 0.0 0.0 0.00 0.23 0.18 75 1006.5
20260901131453 60 200 0.0 0.0 0.00 0.23 0.18 75 1006.5
20260901130453 60 245 0.0 0.0 0.00 0.23 0.18 75 1006.4
20260901125423 60 171 0.0 0.0 0.00 0.23 0.18 76 1006.4
20260901124423 60 170 0.0 0.0 0.00 0.23 0.18 76 1006.5
20260901123423 60 193 0.0 0.0 0.00 0.23 0.18 78 1006.6
20260901122422 60 166 0.0 0.0 0.00 0.23 0.18 78 1006.5
20260901121422 59 195 0.0 0.0 0.00 0.23 0.18 81 1006.6
20260901120422 58 244 0.0 0.0 0.00 0.23 0.18 82 1006.7
20260901115422 58 182 0.0 0.0 0.00 0.23 0.18 81 1006.6
20260901114422 57 226 0.0 0.0 0.00 0.23 0.18 82 1006.4
20260901113422 57 204 0.0 0.0 0.00 0.23 0.18 81 1006.5
20260901112422 57 236 0.0 0.0 0.00 0.23 0.18 81 1006.3
20260901111422 57 262 0.0 0.0 0.00 0.23 0.18 81 1006.3
20260901110422 57 196 0.0 0.0 0.00 0.23 0.18 84 1006.2
20260901105422 57 190 0.0 0.0 0.00 0.23 0.18 87 1006.3
20260901104422 56 185 0.0 0.0 0.00 0.23 0.18 86 1006.2
20260901103422 56 190 0.0 0.0 0.00 0.23 0.18 86 1006.2
20260901102422 56 183 0.0 0.0 0.00 0.23 0.18 85 1006.1
20260901101422 56 187 0.0 0.0 0.00 0.23 0.18 85 1006.0
20260901100422 56 178 0.0 0.0 0.00 0.23 0.18 85 1006.0
20260901095352 56 156 0.0 0.0 0.00 0.23 0.18 86 1006.0
20260901094352 56 233 0.0 0.0 0.00 0.23 0.18 85 1005.8
20260901093352 56 185 0.0 0.0 0.00 0.23 0.18 86 1005.8
20260901092352 56 236 0.0 0.0 0.00 0.23 0.18 86 1005.7
20260901091352 56 179 0.0 0.0 0.00 0.23 0.18 87 1005.7
20260901090351 56 139 0.0 0.0 0.00 0.23 0.18 88 1005.7
20260901085351 55 165 0.0 0.0 0.00 0.23 0.18 89 1005.7
20260901084351 55 202 0.0 0.0 0.00 0.23 0.18 89 1005.7
20260901083351 55 214 0.0 0.0 0.00 0.23 0.18 89 1005.7
20260901082351 55 157 0.0 0.0 0.00 0.23 0.18 91 1005.7
20260901081351 55 169 0.0 0.0 0.00 0.23 0.18 91 1005.7
20260901080351 54 199 0.0 0.0 0.00 0.23 0.18 90 1005.7
20260901075351 54 165 0.0 0.0 0.00 0.23 0.18 91 1005.7
20260901074351 54 251 0.0 0.0 0.00 0.23 0.18 91 1005.6
20260901073321 54 105 0.0 0.0 0.00 0.23 0.18 92 1005.4
20260901072321 54 123 0.0 0.0 0.00 0.23 0.18 92 1005.3
20260901071321 54 91 0.0 0.0 0.00 0.23 0.18 92 1005.3
20260901070321 54 236 0.0 0.0 0.00 0.23 0.18 92 1005.2
20260901065321 54 192 0.0 0.0 0.00 0.23 0.18 92 1005.1
20260901064321 54 196 0.0 0.0 0.00 0.23 0.18 92 1005.1
20260901063321 53 195 0.0 0.0 0.00 0.23 0.18 92 1005.0
20260901062321 53 159 0.0 0.0 0.00 0.23 0.18 93 1005.0
20260901061321 53 184 0.0 0.0 0.00 0.23 0.18 93 1004.9
20260901060321 52 175 0.0 0.0 0.00 0.23 0.18 93 1004.9
20260901055321 52 161 0.0 0.0 0.00 0.23 0.18 94 1004.8
20260901054321 52 172 0.0 0.0 0.00 0.23 0.18 93 1004.8
20260901053320 52 170 0.0 0.0 0.00 0.23 0.18 94 1004.6
20260901052320 52 105 0.0 0.0 0.00 0.23 0.18 94 1004.5
20260901051320 52 30 0.0 0.0 0.00 0.23 0.18 93 1004.6
20260901050320 52 86 0.0 0.0 0.00 0.23 0.18 93 1004.6
20260901045320 52 101 0.0 0.0 0.00 0.23 0.18 93 1004.5
20260901044320 52 60 0.0 0.0 0.01 0.23 0.18 94 1004.5
20260901043320 52 194 0.0 0.0 0.01 0.23 0.18 94 1004.5
20260901042320 52 215 0.0 0.0 0.01 0.23 0.18 93 1004.5
20260901041320 52 201 0.0 0.0 0.01 0.23 0.18 94 1004.5
20260901040320 52 319 0.0 0.0 0.01 0.23 0.18 94 1004.4
20260901035320 53 154 0.0 0.0 0.01 0.23 0.18 94 1004.3
20260901034320 53 155 0.0 0.0 0.00 0.22 0.17 94 1004.5
20260901033320 53 196 0.0 0.0 0.00 0.22 0.17 94 1004.4
20260901032320 53 183 0.0 0.0 0.01 0.22 0.17 94 1004.5
20260901031320 53 202 0.0 0.0 0.02 0.22 0.17 94 1004.5
20260901030320 53 142 0.0 0.0 0.02 0.22 0.17 94 1004.5
20260901025320 53 130 0.0 0.0 0.03 0.22 0.17 94 1004.4
20260901024320 53 57 0.0 0.0 0.04 0.22 0.17 94 1004.5
20260901023320 53 192 0.0 0.0 0.05 0.22 0.17 94 1004.4
20260901022320 53 132 0.0 0.0 0.04 0.21 0.17 94 1004.4
20260901021320 53 74 0.0 0.0 0.03 0.20 0.16 94 1004.3
20260901020320 53 239 0.0 0.0 0.02 0.20 0.15 94 1004.1
20260901015319 54 136 0.0 0.0 0.02 0.19 0.14 94 1004.1
20260901014320 54 47 0.0 0.0 0.02 0.19 0.14 94 1004.1
20260901013319 54 181 0.0 0.0 0.02 0.18 0.13 94 1004.1
20260901012319 54 200 0.0 0.0 0.02 0.17 0.13 94 1004.0
20260901011319 54 207 0.0 0.0 0.02 0.17 0.13 94 1004.0
20260901010319 54 284 0.0 0.0 0.03 0.17 0.13 94 1004.1
20260901005319 54 210 0.0 0.0 0.03 0.17 0.12 94 1004.1
20260901004319 54 194 0.0 0.0 0.04 0.17 0.12 94 1004.2
20260901003319 54 214 0.0 0.0 0.04 0.16 0.11 94 1004.2
20260901002319 54 204 0.0 0.0 0.03 0.15 0.10 94 1004.2
20260901001319 54 206 0.0 0.0 0.04 0.15 0.10 94 1004.1
20260901000321 54 207 0.0 0.0 0.05 0.14 0.09 94 1004.2
20260831235319 54 175 0.0 0.0 0.04 0.13 0.09 94 1004.3
20260831234319 54 210 0.0 0.0 0.04 0.13 0.08 94 1004.3
20260831233319 54 209 0.0 0.0 0.04 0.12 0.07 94 1004.3
20260831232319 54 206 0.0 0.0 0.05 0.12 0.07 94 1004.3
20260831231319 54 179 0.0 0.0 0.05 0.11 0.06 94 1004.3
20260831230319 54 173 0.0 0.0 0.04 0.09 0.05 94 1004.3
20260831225319 54 156 0.0 0.0 0.00 0.09 0.05 93 1004.3
20260831224319 54 146 0.0 0.0 0.00 0.09 0.04 93 1004.3
20260831223319 55 172 0.0 0.0 0.00 0.08 0.03 93 1004.3
20260831222319 55 203 0.0 0.0 0.00 0.07 0.02 93 1004.4
20260831221319 55 199 0.0 0.0 0.00 0.06 0.02 93 1004.4
20260831220319 55 203 0.0 0.0 0.00 0.06 0.01 93 1004.4
20260831215318 55 203 0.0 0.0 0.02 0.05 0.05 93 1004.4
20260831214318 55 202 0.0 0.0 0.02 0.05 0.05 92 1004.4
20260831213318 56 202 0.0 0.0 0.02 0.04 0.04 92 1004.4
20260831212318 56 202 0.0 0.0 0.02 0.04 0.04 91 1004.3
20260831211318 56 202 0.0 0.0 0.03 0.04 0.04 91 1004.4
20260831210318 57 202 0.0 0.0 0.03 0.04 0.04 91 1004.4
20260831205318 57 202 0.0 0.0 0.03 0.03 0.03 92 1004.5
20260831204318 56 202 0.0 0.0 0.03 0.03 0.03 91 1004.5
20260831203318 56 202 0.0 0.0 0.02 0.02 0.02 91 1004.4
20260831202318 56 202 0.0 0.0 0.02 0.02 0.02 91 1004.5
20260831201318 56 202 0.0 0.0 0.01 0.01 0.01 92 1004.6
20260831200318 56 202 0.0 0.0 0.01 0.01 0.01 92 1004.6
20260831195318 56 202 0.0 0.0 0.00 0.00 0.00 92 1004.6
20260831194248 56 202 0.0 0.0 0.00 0.00 0.00 91 1004.6
20260831193248 56 202 0.0 0.0 0.00 0.00 0.00 91 1004.6
20260831192248 56 202 0.0 0.0 0.00 0.00 0.00 91 1004.6
20260831191248 57 202 0.0 0.0 0.00 0.00 0.00 90 1004.7
20260831190248 57 202 0.0 0.0 0.00 0.00 0.00 90 1004.7
20260831185248 57 202 0.0 0.0 0.00 0.00 0.00 90 1004.7
20260831184248 57 202 0.0 0.0 0.00 0.00 0.00 89 1004.6
20260831183248 57 202 0.0 0.0 0.00 0.00 0.00 89 1004.6
20260831182248 58 202 0.0 0.0 0.00 0.00 0.00 88 1004.6
20260831181248 58 202 0.0 0.0 0.00 0.00 0.00 87 1004.5
20260831180247 58 202 0.0 0.0 0.00 0.00 0.00 87 1004.5
20260831175247 58 202 0.0 0.0 0.00 0.00 0.00 86 1004.5
20260831174247 59 202 0.0 0.0 0.00 0.00 0.00 86 1004.5
20260831173247 59 202 0.0 0.0 0.00 0.00 0.00 86 1004.5
20260831172247 59 202 0.0 0.0 0.00 0.00 0.00 86 1004.5
20260831171247 60 202 0.0 0.0 0.00 0.00 0.00 86 1004.5
20260831170247 60 202 0.0 0.0 0.00 0.00 0.00 85 1004.4
20260831165247 60 202 0.0 0.0 0.00 0.00 0.00 85 1004.3
20260831164247 60 202 0.0 0.0 0.00 0.00 0.00 84 1004.4